Hurley, NM

8:15 PM MST on February 20, 2017 (GMT -0700)
Grant County

Weather History for KSVC - October, 2011

Change the Weather History Date:

Thursday, October 27, 2011

  Actual Average (KDMN) Record (KDMN)
Temperature  
Mean Temperature 48 °F -  
Max Temperature 59 °F 73 °F 86 °F (1959)
Min Temperature 37 °F 39 °F 27 °F (1970)
Degree Days  
Heating Degree Days 17    
Moisture  
Dew Point 33 °F    
Average Humidity 54    
Maximum Humidity 75    
Minimum Humidity 36    
Precipitation  
Precipitation 0.00 in - - ()
Sea Level Pressure  
Sea Level Pressure 30.06 in    
Wind  
Wind Speed 10 mph (SSW)    
Max Wind Speed 16 mph    
Max Gust Speed 20 mph    
Visibility 10 miles    
Events      
Averages and records for this station are not official NWS values.
T = Trace of Precipitation, MM = Missing Value Source: NWS Daily Summary

Daily Weather History Graph

Daily Weather History Graph

Search for Another Location

Airport or City:

Trip Planner

Search our weather history database for the weather conditions in past years. The results will help you decide how hot, cold, wet, or windy it might be!

Date:

Astronomy

Oct. 27, 2011 Rise Set
Actual Time 7:25 AM MDT 6:26 PM MDT
Civil Twilight 7:00 AM MDT 6:51 PM MDT
Nautical Twilight 6:31 AM MDT 7:20 PM MDT
Astronomical Twilight 6:03 AM MDT 7:49 PM MDT
Moon 8:25 AM MDT (10/27) 7:06 PM MDT (10/27)
Length of Visible Light 11h 51m
Length of Day
11h 00m
New Moon, 1% of the Moon is Illuminated
Oct 27
New Moon
Nov 2
First Quarter
Nov 10
Full
Nov 18
Last Quarter
Nov 24
New

Hourly Weather History & Observations

Time (MDT) Temp. Windchill Dew Point Humidity Pressure Visibility Wind Dir Wind Speed Gust Speed Precip Events Conditions
12:15 AM 51.8 °F - 32.0 °F 47% 29.94 in 10.0 mi WNW 16.1 mph 19.6 mph N/A   Clear
12:35 AM 51.8 °F - 32.0 °F 47% 29.95 in 10.0 mi NW 11.5 mph - N/A   Clear
12:55 AM 48.2 °F - 32.0 °F 54% 29.96 in 10.0 mi NW 8.1 mph - N/A   Clear
1:15 AM 46.4 °F 42.4 °F 32.0 °F 57% 29.96 in 10.0 mi NW 8.1 mph - N/A   Clear
2:15 AM 44.6 °F 38.8 °F 32.0 °F 61% 29.96 in 10.0 mi NW 11.5 mph - N/A   Clear
2:35 AM 41.0 °F 34.7 °F 32.0 °F 70% 29.96 in 10.0 mi NNW 10.4 mph - N/A   Clear
2:55 AM 41.0 °F 34.3 °F 32.0 °F 70% 29.96 in 10.0 mi NW 11.5 mph - N/A   Clear
3:15 AM 42.8 °F 37.0 °F 32.0 °F 66% 29.97 in 10.0 mi NW 10.4 mph - N/A   Clear
3:35 AM 41.0 °F 34.7 °F 32.0 °F 70% 29.97 in 10.0 mi NNW 10.4 mph - N/A   Clear
3:55 AM 42.8 °F 36.6 °F 32.0 °F 66% 29.97 in 10.0 mi NW 11.5 mph - N/A   Clear
4:35 AM 39.2 °F 33.6 °F 32.0 °F 75% 29.98 in 10.0 mi NNW 8.1 mph - N/A   Clear
4:55 AM 37.4 °F 30.8 °F 30.2 °F 75% 29.99 in 10.0 mi NW 9.2 mph - N/A   Clear
5:15 AM 41.0 °F 34.3 °F 32.0 °F 70% 30.00 in 10.0 mi NNW 11.5 mph - N/A   Clear
5:35 AM 42.8 °F 38.6 °F 32.0 °F 66% 30.01 in 10.0 mi North 6.9 mph - N/A   Scattered Clouds
5:55 AM 41.0 °F 35.2 °F 32.0 °F 70% 30.01 in 10.0 mi NNW 9.2 mph - N/A   Scattered Clouds
6:15 AM 41.0 °F 34.7 °F 32.0 °F 70% 30.01 in 10.0 mi NNW 10.4 mph - N/A   Clear
6:35 AM 41.0 °F 34.7 °F 32.0 °F 70% 30.01 in 10.0 mi NW 10.4 mph - N/A   Clear
6:55 AM 41.0 °F 35.2 °F 32.0 °F 70% 30.02 in 10.0 mi NNW 9.2 mph - N/A   Clear
7:15 AM 39.2 °F 33.6 °F 32.0 °F 75% 30.03 in 10.0 mi North 8.1 mph - N/A   Clear
7:35 AM 39.2 °F 33.0 °F 32.0 °F 75% 30.04 in 10.0 mi North 9.2 mph - N/A   Clear
7:55 AM 39.2 °F 35.0 °F 32.0 °F 75% 30.05 in 10.0 mi NNW 5.8 mph - N/A   Clear
8:15 AM 41.0 °F - 32.0 °F 70% 30.07 in 10.0 mi Calm Calm - N/A   Clear
8:35 AM 46.4 °F 41.5 °F 32.0 °F 57% 30.08 in 10.0 mi SE 10.4 mph - N/A   Clear
8:55 AM 46.4 °F 40.4 °F 35.6 °F 66% 30.09 in 10.0 mi SE 13.8 mph - N/A   Clear
9:15 AM 46.4 °F 40.1 °F 35.6 °F 66% 30.10 in 10.0 mi SE 15.0 mph - N/A   Clear
9:35 AM 48.2 °F - 35.6 °F 62% 30.11 in 10.0 mi SSE 15.0 mph - N/A   Clear
9:55 AM 48.2 °F - 37.4 °F 66% 30.11 in 10.0 mi SSE 13.8 mph - N/A   Clear
10:15 AM 50.0 °F - 35.6 °F 58% 30.11 in 10.0 mi SSE 13.8 mph - N/A   Clear
10:35 AM 51.8 °F - 35.6 °F 54% 30.12 in 10.0 mi SSE 10.4 mph - N/A   Clear
10:55 AM 51.8 °F - 35.6 °F 54% 30.12 in 10.0 mi South 9.2 mph - N/A   Clear
11:15 AM 53.6 °F - 35.6 °F 51% 30.13 in 10.0 mi SE 9.2 mph - N/A   Clear
11:35 AM 53.6 °F - 35.6 °F 51% 30.13 in 10.0 mi South 11.5 mph - N/A   Clear
11:55 AM 53.6 °F - 35.6 °F 51% 30.13 in 10.0 mi SSW 8.1 mph - N/A   Clear
12:15 PM 55.4 °F - 35.6 °F 47% 30.13 in 10.0 mi South 9.2 mph - N/A   Clear
12:35 PM 55.4 °F - 35.6 °F 47% 30.12 in 10.0 mi SSW 3.5 mph - N/A   Partly Cloudy
1:15 PM 57.2 °F - 33.8 °F 41% 30.11 in 10.0 mi SSE 6.9 mph - N/A   Partly Cloudy
1:35 PM 55.4 °F - 33.8 °F 44% 30.11 in 10.0 mi South 4.6 mph - N/A   Partly Cloudy
1:55 PM 59.0 °F - 33.8 °F 39% 30.10 in 10.0 mi South 10.4 mph 16.1 mph N/A   Scattered Clouds
2:15 PM 59.0 °F - 32.0 °F 36% 30.10 in 10.0 mi South 12.7 mph 19.6 mph N/A   Partly Cloudy
2:35 PM 59.0 °F - 32.0 °F 36% 30.09 in 10.0 mi South 16.1 mph - N/A   Scattered Clouds
2:55 PM 57.2 °F - 32.0 °F 38% 30.09 in 10.0 mi SSW 6.9 mph 16.1 mph N/A   Partly Cloudy
3:15 PM 57.2 °F - 32.0 °F 38% 30.09 in 10.0 mi South 6.9 mph - N/A   Partly Cloudy
3:35 PM 57.2 °F - 32.0 °F 38% 30.09 in 10.0 mi SSE 6.9 mph - N/A   Clear
3:55 PM 59.0 °F - 32.0 °F 36% 30.09 in 10.0 mi South 5.8 mph - N/A   Clear
4:15 PM 59.0 °F - 32.0 °F 36% 30.09 in 10.0 mi South 8.1 mph - N/A   Clear
4:35 PM 59.0 °F - 32.0 °F 36% 30.09 in 10.0 mi SSW 6.9 mph - N/A   Clear
4:55 PM 59.0 °F - 32.0 °F 36% 30.10 in 10.0 mi South 10.4 mph - N/A   Clear
5:15 PM 57.2 °F - 32.0 °F 38% 30.10 in 10.0 mi SSE 6.9 mph - N/A   Clear
5:35 PM 57.2 °F - 32.0 °F 38% 30.10 in 10.0 mi SSE 9.2 mph - N/A   Clear
5:55 PM 57.2 °F - 32.0 °F 38% 30.10 in 10.0 mi South 8.1 mph - N/A   Clear
6:15 PM 55.4 °F - 32.0 °F 41% 30.11 in 10.0 mi SSE 8.1 mph - N/A   Clear
6:35 PM 53.6 °F - 32.0 °F 44% 30.12 in 10.0 mi SSE 6.9 mph - N/A   Clear
7:15 PM 50.0 °F - 30.2 °F 47% 30.13 in 10.0 mi SSE 4.6 mph - N/A   Clear
7:35 PM 50.0 °F - 30.2 °F 47% 30.14 in 10.0 mi SSE 4.6 mph - N/A   Clear
7:55 PM 50.0 °F - 30.2 °F 47% 30.15 in 10.0 mi SSE 4.6 mph - N/A   Clear
8:15 PM 50.0 °F - 32.0 °F 50% 30.15 in 10.0 mi SE 3.5 mph - N/A   Clear
8:35 PM 48.2 °F - 30.2 °F 50% 30.15 in 10.0 mi SE 3.5 mph - N/A   Clear
8:55 PM 48.2 °F - 30.2 °F 50% 30.16 in 10.0 mi East 3.5 mph - N/A   Clear
9:15 PM 44.6 °F - 28.4 °F 53% 30.16 in 10.0 mi Calm Calm - N/A   Clear
9:35 PM 41.0 °F 38.0 °F 30.2 °F 65% 30.17 in 10.0 mi NNE 4.6 mph - N/A   Clear
9:55 PM 39.2 °F 37.0 °F 28.4 °F 65% 30.17 in 10.0 mi NE 3.5 mph - N/A   Clear
10:15 PM 37.4 °F 34.9 °F 26.6 °F 65% 30.18 in 10.0 mi NE 3.5 mph - N/A   Clear
10:55 PM 37.4 °F 31.4 °F 28.4 °F 70% 30.18 in 10.0 mi North 8.1 mph - N/A   Clear
11:15 PM 37.4 °F 32.8 °F 28.4 °F 70% 30.18 in 10.0 mi NNE 5.8 mph - N/A   Clear
11:35 PM 37.4 °F 33.8 °F 28.4 °F 70% 30.19 in 10.0 mi NNE 4.6 mph - N/A   Clear
11:55 PM 37.4 °F 33.8 °F 26.6 °F 65% 30.19 in 10.0 mi NNW 4.6 mph - N/A   Clear